Tracking 31028 objects as of 17-Jul-2025
HD Live streaming from Space Station
objects crossing your sky now

PEGASUS DEB

Track PEGASUS DEB now!
10-day predictions


NORAD ID: 24213
Int'l Code: 1994-029KL
Perigee: 539.8 km
Apogee: 1,299.8 km
Inclination: 81.5 °
Period: 103.3 minutes
Semi major axis: 7290 km
RCS: 0.0555 m2 (small)
Launch date: May 19, 1994
Source: United States (US)
Launch site: AIR FORCE WESTERN TEST RANGE (AFWTR)

Note: This is SATELLITE DEBRIS
Your satellite tracking list
Your tracking list is empty




NASA's NSSDC Master Catalog

Two Line Element Set (TLE):
1 24213U 94029KL  25198.18859329  .00001242  00000-0  29105-3 0  9995
2 24213  81.4615  97.9906 0521210 278.1183  76.1191 13.94575342115353
Source of the keplerian elements: AFSPC